[[{"header":{"parameterUnit":"m.s-1","parameterCategory":1,"la1":30.2991,"la2":30.254,"lo1":-89.0895,"lo2":-89.0444,"dy":0.0017,"dx":0.0017,"nx":28,"ny":28,"refTime":"2025-04-25T09:00:00:Z","depth":0,"parameterNumber":2,"parameterNumberName":"U-component_of_WINDS"},"data":[0,0,0,0,0,0,0,0,0,0,0,0,0,0,0,0,0,0,0,0,0,0,0,0,0,0,0,0,0,0,0,0,0,0,0,0,0,0,0,0,0,0,0,0,0,0,0,0,0,0,0,0,0,0,0,0,0,0,-1.9121,-1.9124,0,-1.9324,-1.9326,-1.9328,-1.9374,-1.9372,-1.9371,-1.9369,-1.9581,-1.9588,-1.9595,0,0,0,0,0,0,0,0,0,0,0,0,0,-1.8779,-1.8785,-1.9121,-1.9124,-1.9126,-1.9323,-1.9326,-1.9329,-1.9374,-1.9372,-1.937,-1.9369,-1.9579,-1.9587,-1.9595,0,0,0,0,0,0,0,0,0,0,0,0,0,-1.8949,-1.8787,-1.9121,-1.9172,-1.9179,-1.9323,-1.9326,-1.933,-1.9374,-1.9372,-1.937,-1.9368,-1.9576,-1.9586,-1.9597,-1.9705,0,0,-1.9629,-1.9633,0,0,0,0,0,0,0,0,-1.894,-1.8962,-1.9162,-1.9169,-1.9177,-1.9321,-1.9283,-1.9456,-1.9375,-1.93,-1.9369,-1.9367,-1.9497,-1.9514,-1.9556,-1.9715,-1.9724,-1.963,-1.9636,-1.9641,-1.9643,0,0,0,0,0,0,0,-1.8928,-1.8953,-1.9202,-1.9165,-1.9174,-1.9187,-1.9209,-1.9316,-1.9408,-1.9306,-1.931,-1.9333,-1.95,-1.9546,-1.9562,-1.9727,-1.9629,-1.9639,-1.9645,-1.9649,-1.9988,-1.999,0,0,0,0,0,0,-1.8906,-1.8943,-1.9195,-1.9208,-1.905,-1.9195,-1.9219,-1.9277,-1.9407,-1.9425,-1.9335,-1.9335,-1.9529,-1.9549,-1.9569,-1.9706,-1.964,-1.965,-1.9656,-1.9985,-1.9988,-1.9991,0,0,0,0,0,0,-1.8899,-1.8928,-1.9187,-1.9077,-1.911,-1.9203,-1.9268,-1.9282,-1.9328,-1.9429,-1.9446,-1.9365,-1.9528,-1.9555,-1.9671,-1.9714,-1.9655,-1.9665,-1.9982,-1.9986,-1.999,-1.998,0,0,0,0,0,0,-1.8889,-1.8925,-1.8966,-1.9077,-1.9116,-1.9284,-1.927,-1.9288,-1.9346,-1.9347,-1.9461,-1.9478,-1.9529,-1.9655,-1.9682,-1.9728,-1.9673,-1.9978,-1.9984,-1.9988,-1.9977,-1.9983,-1.9988,0,0,0,0,0,-1.8876,-1.8956,-1.8968,-1.8998,-1.9169,-1.9286,-1.9308,-1.9364,-1.9349,-1.9392,-1.9457,-1.9474,-1.9705,-1.9667,-1.9697,-1.9747,-1.9976,-1.9982,-1.9988,-1.9974,-1.9982,-1.9988,0,0,0,0,0,0,-1.8849,-1.8971,-1.8986,-1.9103,-1.9184,-1.9293,-1.9349,-1.937,-1.9458,-1.9455,-1.9522,-1.9548,-1.966,-1.9715,-1.967,-1.986,-1.984,-1.9853,-1.9819,-1.9828,-1.9833,-1.9818,-1.9681,0,0,0,0,0,-1.8856,-1.8939,-1.9042,-1.9136,-1.9176,-1.9255,-1.9308,-1.9344,-1.9431,-1.9465,-1.9539,-1.9624,-1.9716,-1.9775,-1.9865,-1.9985,-2.0012,-2.0034,-2.004,-2.0044,-2.0055,-2.0124,-2.0136,-2.0011,-2.0011,-2.0011,0,0,-1.8872,-1.895,-1.8998,-1.9133,-1.9199,-1.9286,-1.9283,-1.9375,-1.944,-1.948,-1.9594,-1.9651,-1.9751,-1.987,-1.9926,-1.9919,-2.0095,-2.0052,-2.0055,-2.0063,-2.0132,-2.0143,-2.0154,-2.0015,-2.0014,-2.0014,0,0,-1.8946,-1.9012,-1.9098,-1.9165,-1.9265,-1.9318,-1.9339,-1.9446,-1.9485,-1.96,-1.9632,-1.9712,-1.9868,-1.9938,-1.9994,-2.0096,-2.0117,-2.0124,-2.0155,-2.0222,-2.0232,-2.0241,-2.0279,-2.0291,-2.0134,-2.0134,-2.0134,0,-1.8955,-1.9084,-1.914,-1.9231,-1.929,-1.9328,-1.9417,-1.948,-1.9605,-1.9646,-1.9636,-1.9834,-1.9903,-2.004,-2.0065,-2.0109,-2.0136,-2.0111,-2.0225,-2.0235,-2.0245,-2.0282,-2.0295,-2.0134,-2.0134,-2.0134,-2.0134,0,-1.909,-1.918,-1.9238,-1.9356,-1.9422,-1.9511,-1.9583,-1.9643,-1.9673,-1.9728,-1.9846,-1.9931,-2.0039,-2.0075,-2.0106,-2.0217,-2.021,-2.0212,-2.0194,-2.0256,-2.0292,-2.0306,-2.0134,-2.0134,-2.0134,-2.0134,0,0,-1.9152,-1.9301,-1.9321,-1.9376,-1.9491,-1.9562,-1.9654,-1.9759,-1.981,-1.9896,-1.9976,-2.0108,-2.0111,-2.0174,-2.0214,-2.0272,-2.035,-2.0268,-2.0271,-2.0281,-2.048,-2.0478,-2.0493,-2.0364,-2.0367,-2.0369,-2.0472,0,-1.9241,-1.9404,-1.9458,-1.9595,-1.968,-1.9718,-1.9799,-1.9878,-1.9932,-2.0013,-2.0073,-2.0166,-2.0162,-2.0201,-2.0261,-2.0328,-2.0391,-2.0321,-2.0441,-2.0445,-2.0415,-2.0512,-2.051,-2.0603,-2.0486,-2.0489,-2.049,0,-1.9366,-1.9453,-1.9597,-1.9702,-1.974,-1.981,-1.9912,-1.9988,-2.0081,-2.0116,-2.0187,-2.0223,-2.0322,-2.0298,-2.0438,-2.0389,-2.0441,-2.0482,-2.0487,-2.0501,-2.0471,-2.0529,-2.0633,-2.0647,-2.0513,-2.0511,-2.0509,0,-1.9398,-1.9551,-1.9657,-1.9703,-1.9828,-1.9877,-1.9932,-2.0022,-2.0082,-2.0171,-2.0211,-2.0311,-2.0367,-2.0444,-2.0507,-2.0483,-2.0641,-2.0622,-2.0675,-2.0673,-2.0707,-2.0704,-2.0822,-2.0739,-2.0739,-2.0739,-2.0738,0,-1.9492,-1.958,-1.9674,-1.9739,-1.9839,-1.9901,-1.9999,-2.0056,-2.0136,-2.0215,-2.0255,-2.0329,-2.0406,-2.0491,-2.054,-2.0649,-2.0674,-2.0706,-2.0719,-2.0703,-2.0699,-2.0739,-2.0735,-2.0742,-2.0742,-2.0741,-2.074,0,-1.9545,-1.9611,-1.973,-1.9838,-1.9868,-1.9936,-2.003,-2.0097,-2.0152,-2.0252,-2.0279,-2.0366,-2.0468,-2.0538,-2.0669,-2.0702,-2.0821,-2.0831,-2.0789,-2.0795,-2.0845,-2.0839,-2.0993,-2.1017,-2.0917,-2.0918,-2.0918,0,-1.9601,-1.9669,-1.9784,-1.9839,-1.9893,-1.9982,-2.0043,-2.0108,-2.017,-2.0281,-2.0335,-2.0439,-2.0526,-2.0687,-2.0764,-2.0864,-2.0879,-2.0926,-2.0894,-2.0877,-2.0881,-2.0876,-2.0885,-2.093,-2.0931,-2.0932,-2.0932,0,-1.9694,-1.9723,-1.9809,-1.9907,-1.9979,-2.006,-2.0141,-2.0185,-2.0264,-2.0333,-2.0436,-2.0503,-2.0637,-2.0741,-2.0849,-2.0907,-2.0934,-2.0942,-2.096,-2.0945,-2.0918,-2.0934,-2.0803,-2.0938,-2.0937,-2.0937,-2.0937,-2.0936,-1.9751,-1.9814,-1.9905,-2.0,-2.0067,-2.0143,-2.0211,-2.0274,-2.0361,-2.0474,-2.0507,-2.0616,-2.0709,-2.0856,-2.0917,-2.1004,-2.1,-2.1026,-2.1033,-2.1038,-2.1038,-2.0903,-2.1024,-2.1024,-2.1024,-2.1024,-2.1024,0,-1.9847,-1.9907,-1.9994,-2.0106,-2.0181,-2.0198,-2.0289,-2.0352,-2.0446,-2.0529,-2.0614,-2.0734,-2.0835,-2.092,-2.1025,-2.1079,-2.1094,-2.1104,-2.1101,-2.1115,-2.1035,-2.101,-2.109,-2.109,-2.109,-2.109,-2.109,-2.109,-1.9906,-2.0013,-2.0054,-2.0196,-2.0257,-2.0362,-2.0413,-2.0483,-2.055,-2.0682,-2.0766,-2.0819,-2.0905,-2.1016,-2.111,-2.1133,-2.117,-2.1178,-2.1204,-2.1128,-2.112,-2.1113,-2.109,-2.1186,-2.1186,-2.1277,-2.1277,-2.1278]},{"header":{"parameterUnit":"m.s-1","parameterCategory":1,"la1":30.2991,"la2":30.254,"lo1":-89.0895,"lo2":-89.0444,"dy":0.0017,"dx":0.0017,"nx":28,"ny":28,"refTime":"2025-04-25T09:00:00:Z","depth":0,"parameterNumber":3,"parameterNumberName":"V-component_of_WINDS"},"data":[0,0,0,0,0,0,0,0,0,0,0,0,0,0,0,0,0,0,0,0,0,0,0,0,0,0,0,0,0,0,0,0,0,0,0,0,0,0,0,0,0,0,0,0,0,0,0,0,0,0,0,0,0,0,0,0,0,0,4.7083,4.7083,0,4.71,4.71,4.71,4.704,4.7038,4.7036,4.7034,4.705,4.7052,4.7054,0,0,0,0,0,0,0,0,0,0,0,0,0,4.6995,4.6997,4.7083,4.7083,4.7083,4.71,4.71,4.71,4.704,4.7038,4.7036,4.7034,4.7049,4.7051,4.7054,0,0,0,0,0,0,0,0,0,0,0,0,0,4.7025,4.6998,4.7083,4.7055,4.7053,4.71,4.71,4.71,4.704,4.7038,4.7035,4.7032,4.7048,4.7051,4.7054,4.7128,0,0,4.7064,4.7065,0,0,0,0,0,0,0,0,4.7023,4.7028,4.7059,4.7057,4.7055,4.7065,4.7075,4.711,4.7041,4.7045,4.7034,4.7031,4.7057,4.7059,4.7068,4.7129,4.7129,4.7064,4.7066,4.7067,4.7068,0,0,0,0,0,0,0,4.7021,4.7027,4.709,4.706,4.7057,4.7041,4.7042,4.7081,4.7066,4.7045,4.704,4.7043,4.7055,4.7065,4.7068,4.7129,4.7064,4.7067,4.7069,4.707,4.725,4.7252,0,0,0,0,0,0,4.7023,4.7026,4.7089,4.709,4.7032,4.7045,4.7046,4.7064,4.7065,4.7063,4.7046,4.704,4.7061,4.7064,4.7068,4.7153,4.7067,4.707,4.7072,4.7247,4.725,4.7253,0,0,0,0,0,0,4.7022,4.7029,4.7088,4.7057,4.7063,4.7049,4.707,4.7066,4.7076,4.7066,4.7063,4.7059,4.7059,4.7064,4.7113,4.7153,4.7072,4.7074,4.7243,4.7248,4.7252,4.7324,0,0,0,0,0,0,4.7019,4.7029,4.7058,4.7058,4.7065,4.7134,4.7073,4.7068,4.7082,4.7075,4.7078,4.7075,4.7057,4.7109,4.7116,4.7156,4.7077,4.724,4.7245,4.7251,4.7318,4.7331,4.7341,0,0,0,0,0,4.7016,4.7077,4.706,4.7067,4.7101,4.7137,4.714,4.7119,4.7086,4.7113,4.7107,4.7075,4.7148,4.7115,4.7122,4.7163,4.7237,4.7244,4.725,4.7313,4.7328,4.7341,0,0,0,0,0,0,4.7081,4.7077,4.7057,4.712,4.7129,4.7126,4.7161,4.7136,4.7154,4.7147,4.7119,4.712,4.7174,4.7174,4.7137,4.7234,4.7186,4.7195,4.7232,4.7246,4.7257,4.7255,4.708,0,0,0,0,0,4.7103,4.7134,4.7128,4.7184,4.719,4.7175,4.719,4.7172,4.718,4.7184,4.7181,4.7189,4.7213,4.723,4.7252,4.7319,4.7317,4.7351,4.7362,4.7371,4.7378,4.7412,4.7426,4.7275,4.7275,4.7275,0,0,4.7148,4.7149,4.717,4.7197,4.7202,4.7233,4.7178,4.7214,4.7236,4.7189,4.7235,4.7233,4.7241,4.7299,4.7324,4.73,4.742,4.738,4.7387,4.7389,4.742,4.7434,4.7447,4.7279,4.7278,4.7278,0,0,4.7245,4.7251,4.7297,4.7303,4.7312,4.7302,4.7313,4.7314,4.7311,4.7357,4.7322,4.7348,4.7391,4.7397,4.7406,4.7506,4.7477,4.7514,4.7573,4.7606,4.7618,4.7629,4.7662,4.7675,4.7522,4.7522,4.7522,0,4.73,4.7346,4.7324,4.7361,4.7373,4.7333,4.7379,4.7386,4.7402,4.741,4.7384,4.7436,4.7439,4.7497,4.7521,4.753,4.7541,4.7513,4.7619,4.7629,4.7638,4.767,4.7683,4.7526,4.7526,4.7525,4.7525,0,4.7412,4.7444,4.7481,4.7497,4.7513,4.7555,4.7538,4.7557,4.7539,4.7531,4.7578,4.7579,4.76,4.7613,4.7596,4.7669,4.7653,4.7623,4.7575,4.7657,4.7686,4.7699,4.7532,4.7531,4.753,4.7529,0,0,4.7549,4.7553,4.7566,4.7572,4.7579,4.7603,4.7643,4.7664,4.768,4.7692,4.7723,4.7761,4.7733,4.7743,4.7726,4.7756,4.7832,4.7721,4.7721,4.774,4.7911,4.7932,4.7947,4.7814,4.7816,4.7818,4.791,0,4.7643,4.7711,4.7692,4.776,4.7788,4.7751,4.7785,4.7792,4.7786,4.7809,4.7802,4.7829,4.7791,4.7796,4.7824,4.7817,4.7866,4.7811,4.7841,4.7843,4.7839,4.7962,4.7985,4.8071,4.7921,4.7923,4.7925,0,4.7762,4.7779,4.7849,4.785,4.7861,4.7893,4.791,4.7933,4.794,4.7933,4.7945,4.7922,4.796,4.7913,4.7963,4.7926,4.7938,4.7937,4.7939,4.794,4.7887,4.7964,4.8098,4.811,4.7943,4.7941,4.794,0,4.7852,4.7893,4.794,4.7947,4.795,4.7972,4.7974,4.7979,4.7993,4.8008,4.8016,4.8036,4.8046,4.8061,4.8043,4.8011,4.8096,4.8048,4.809,4.8091,4.8108,4.8107,4.8244,4.8119,4.8119,4.8119,4.8119,0,4.7958,4.8002,4.798,4.8009,4.8057,4.8035,4.8083,4.8081,4.8085,4.8112,4.8081,4.8107,4.8083,4.8106,4.8093,4.8136,4.8141,4.8136,4.8131,4.8137,4.8138,4.8143,4.8136,4.8122,4.8122,4.8121,4.812,0,4.8067,4.8054,4.8103,4.8102,4.8102,4.8138,4.8136,4.8162,4.8154,4.8188,4.8195,4.8183,4.8208,4.8193,4.8219,4.821,4.8266,4.8254,4.8263,4.8259,4.8302,4.8297,4.8445,4.8463,4.8329,4.833,4.8331,0,4.8134,4.8167,4.817,4.8186,4.819,4.8216,4.823,4.821,4.8225,4.8236,4.826,4.8283,4.8301,4.8344,4.8336,4.8356,4.8343,4.8394,4.8346,4.835,4.8341,4.8339,4.8341,4.8403,4.8404,4.8405,4.8407,0,4.8254,4.8246,4.8268,4.8287,4.8305,4.8319,4.833,4.8345,4.8324,4.8343,4.8369,4.8383,4.841,4.8433,4.8449,4.845,4.8425,4.8422,4.8432,4.8438,4.8441,4.8438,4.8287,4.8418,4.8417,4.8416,4.8416,4.8415,4.8343,4.837,4.8376,4.84,4.8407,4.8418,4.8442,4.8438,4.8459,4.8479,4.8466,4.8497,4.8502,4.8522,4.8527,4.8549,4.8529,4.8545,4.8548,4.8552,4.8557,4.8439,4.8553,4.8552,4.8552,4.8552,4.8551,0,4.846,4.8462,4.8485,4.8502,4.8521,4.8496,4.8508,4.8525,4.8552,4.856,4.8578,4.8607,4.863,4.8624,4.8644,4.8663,4.8652,4.8669,4.8666,4.8667,4.8575,4.8563,4.8678,4.8678,4.8678,4.8678,4.8678,4.8678,4.8523,4.8567,4.856,4.8606,4.8607,4.8637,4.8646,4.8656,4.8661,4.8696,4.8714,4.8711,4.8713,4.8733,4.8752,4.8749,4.8757,4.8778,4.8772,4.8686,4.8673,4.8661,4.865,4.8781,4.8781,4.8861,4.8862,4.8862]}]]